Probability
0 0 0 0 0 0 0 0 0 0 0 0 0 0 0 0 0 0 0 0 0 0 0 0 0 0 0 0 0 0 0 0 0 0 0 0 0 0 0 0 0 0 0
0 0 0 0 0 0 0 0 0 0 0 0 0 0 0 0 0 0 0 0 0 0 0 0 0 0 0 0 0 0 0 0 0 0 0 0 0 0 0 0 0 0 0
0 0 0 0 0 0 0 0 0 0 0 0 0 0 0 0 0 0 0 0 0 0 0 0 0 0 0 0 0 0 0 0 0 0 0 0 0 0 0 0 0 0 0
0 0 0 0 0 0 0 0 0 0 0 0 0 0 0 0 0 0 0 0 0 0 0 0 0 0 0 0 0 0 0 0 0 0 0 0 0 0 0 0 0 0 0
0 0 0 0 0 0 0 0 0 0 0 0 0 0 0 0 0 0 0 0 0 0 0 0 0 0 0 0 0 0 0 0 0 0 0 0 0 0 0 0 0 0 0
0 0 0 0 0 0 0 0 0 0 0 0 0 0 0 0 0 0 0 0 0 0 0 0 0 0 0 0 0 0 0 0 0 0 0 0 0 0 0 0 0 0 0
0 0 0 0 0 0 0 0 0 0 0 0 0 0 0 0 0 0 0 0 0 0 0 0 0 0 0 0 0 0 0 0 0 0 0 0 0 0 0 0 0 0 0
0 0 0 0 0 0 0 0 0 0 0 0 0 0 0 0 0 0 0 0 0 0 0 0 0 0 0 0 0 0 0 0 0 0 0 0 0 0 0 0 0 0 0
0 0 0 0 0 0 0 0 0 0 0 0 0 0 0 0 0 0 0 0 0 0 0 0 0 0 0 0 0 0 0 0 0 0 0 0 0 0 0 0 0 0 0
0 0 0 0 0 0 0 0 0 0 0 0 0 0 0 0 0 0 0 0 0 0 0 0 0 0 0 0 0 0 0 0 0 0 0 0 0 0 0 0 0 0 0
0 0 0 0 0 0 0 0 0 0 0 0 0 0 0 0 0 0 0 0 0 0 0 0 0 0 0 0 0 0 0 0 0 0 0 0 0 0 0 0 0 0 0
0 0 0 0 0 0 0 0 0 0 0 0 0 0 0 0 0 0 0 0 0 0 0 0 0 0 0 0 0 0 0 0 0 0 0 0 0 0 0 0 0 0 0
0 0 0 0 0 0 0 0 0 0 0 0 0 0 0 0 0 0 0 0 0 0 0 0 0 0 0 0 0 0 0 0 0 0 0 0 0 0 0 0 0 0 0
0 0 0 0 0 0 0 0 0 0 0 0 0 0 0 0 0 0 0 0 0 0 0 0 0 0 0 0 0 0 0 0 0 0 0 0 0 0 0 0 0 0 0
0 0 0 0 0 0 0 0 0 0 0 0 0 0 0 0 0 0 0 0 0 0 0 0 0 0 0 0 0 0 0 0 0 0 0 0 0 0 0 0 0 0 0
0 0 0 0 0 0 0 0 0 0 0 0 0 0 0 0 0 0 0 0 0 0 0 0 0 0 0 0 0 0 0 0 0 0 0 0 0 0 0 0 0 0 0
0 0 0 0 0 0 0 0 0 0 0 0 0 0 0 0 0 0 0 0 0 0 0 0 0 0 0 0 0 0 0 0 0 0 0 0 0 0 0 0 0 0 0
0 0 0 0 0 0 0 0 0 0 0 0 0 0 0 0 0 0 0 0 0 0 0 0 0 0 0 0 0 0 0 0 0 0 0 0 0 0 0 0 0 0 0
0 0 0 0 0 0 0 0 0 0 0 0 0 0 0 0 0 0 0 0 0 0 0 0 0 0 0 0 0 0 0 0 0 0 0 0 0 0 0 0 0 0 0
0 0 0 0 0 0 0 0 0 0 0 0 0 0 0 0 0 0 0 0 0 0 0 0 0 0 0 0 0 0 0 0 0 0 0 0 0 0 0 0 0 0 0
0 0 0 0 0 0 0 0 0 0 0 0 0 0 0 0 0 0 0 0 0 0 0 0 0 0 0 0 0 0 0 0 0 0 0 0 0 0 0 0 0 0 0
0 0 0 0 0 0 0 0 0 0 0 0 0 0 0 0 0 0 0 0 0 0 0 0 0 0 0 0 0 0 0 0 0 0 0 0 0 0 0 0 0 0 0
0 0 0 0 0 0 0 0 0 0 0 0 0 0 0 0 0 0 0 0 0 0 0 0 0 0 0 0 0 0 0 0 0 0 0 0 0 0 0 0 0 0 0
0 0 0 0 0 0 0 0 0 0 0 0 0 0 0 0 0 0 0 0 0 0 0 0 0 0 0 0 0 0 0 0 0 0 0 0 0 0 0 0 0 0 0
0 0 0 0 0 0 0 0 0 0 0 0 0 0 0 0 0 0 0 0 0 0 0 0 0 0 0 0 0 0 0 0 0 0 0 0 0 0 0 0 0 0 0
0 0 0 0 0 0 0 0 0 0 0 0 0 0 0 0 0 0 0 0 0 0 0 0 0 0 0 0 0 0 0 0 0 0 0 0 0 0 0 0 0 0 0
Height
5654 5660 5666 5671 5675 5679 5682 5685 5687 5687 5687 5688 5687 5686 5685 5682 5680 5677 5674 5670 5666 5661 5656 5651 5646 5640 5635 5628 5622 5615 5607 5599 5593 5588 5578 5569 5561 5552 5544 5533 5523 5512 5500
5645 5651 5656 5661 5666 5670 5674 5676 5678 5678 5679 5679 5678 5677 5675 5673 5670 5667 5663 5659 5655 5649 5644 5639 5633 5627 5621 5614 5606 5599 5591 5582 5574 5569 5562 5551 5541 5530 5521 5510 5497 5483 5469
5636 5642 5647 5653 5658 5663 5666 5668 5670 5670 5671 5670 5670 5668 5666 5663 5660 5657 5653 5648 5643 5637 5632 5626 5619 5613 5606 5598 5590 5582 5573 5564 5555 5547 5541 5530 5518 5505 5495 5483 5469 5453 5438
5627 5633 5640 5646 5651 5655 5658 5660 5662 5663 5663 5662 5661 5659 5656 5653 5650 5646 5641 5636 5631 5625 5619 5612 5605 5598 5590 5582 5573 5564 5555 5546 5536 5527 5518 5508 5495 5480 5466 5455 5444 5428 5415
5619 5627 5634 5640 5645 5649 5651 5653 5654 5655 5654 5653 5651 5649 5646 5643 5639 5635 5630 5625 5619 5612 5605 5598 5590 5582 5574 5565 5557 5547 5538 5528 5518 5507 5496 5484 5470 5455 5441 5428 5417 5409 5398
5615 5623 5630 5635 5639 5642 5644 5646 5647 5647 5646 5644 5642 5640 5636 5632 5628 5624 5618 5612 5606 5599 5592 5584 5576 5567 5559 5550 5540 5530 5518 5506 5496 5484 5472 5458 5444 5429 5417 5406 5397 5391 5386
5613 5620 5626 5630 5633 5636 5638 5639 5639 5639 5637 5636 5633 5630 5626 5621 5617 5612 5606 5600 5593 5585 5578 5570 5562 5553 5544 5535 5525 5514 5500 5484 5471 5459 5447 5431 5419 5407 5399 5391 5382 5375 5369
5611 5616 5621 5626 5629 5631 5632 5632 5631 5630 5628 5626 5623 5619 5615 5611 5605 5600 5594 5587 5580 5572 5563 5555 5547 5538 5528 5519 5509 5497 5482 5466 5451 5435 5423 5411 5400 5390 5383 5377 5369 5363 5357
5609 5614 5617 5620 5622 5624 5625 5625 5623 5621 5619 5616 5613 5609 5604 5600 5594 5588 5581 5574 5567 5558 5549 5540 5531 5522 5512 5502 5491 5479 5464 5446 5429 5414 5402 5393 5385 5377 5369 5363 5356 5349 5345
5607 5610 5613 5615 5617 5617 5617 5617 5615 5613 5610 5607 5603 5598 5594 5588 5582 5576 5569 5562 5554 5546 5536 5526 5515 5505 5493 5481 5470 5457 5444 5429 5414 5401 5390 5381 5373 5365 5357 5349 5343 5336 5330
5604 5607 5609 5611 5611 5611 5611 5609 5607 5604 5601 5598 5593 5588 5582 5576 5570 5563 5555 5548 5540 5532 5522 5511 5499 5488 5475 5462 5449 5436 5423 5412 5401 5391 5382 5373 5365 5356 5347 5339 5330 5323 5316
5602 5604 5605 5606 5606 5605 5604 5602 5599 5596 5592 5588 5583 5577 5571 5564 5557 5550 5542 5534 5526 5517 5506 5495 5483 5470 5457 5443 5430 5418 5407 5398 5390 5382 5374 5365 5357 5348 5339 5330 5321 5312 5304
5600 5601 5602 5601 5601 5599 5597 5594 5591 5587 5583 5577 5572 5566 5559 5552 5545 5538 5529 5520 5510 5500 5488 5476 5464 5451 5438 5425 5413 5404 5395 5388 5381 5374 5366 5357 5348 5338 5329 5321 5312 5304 5295
5598 5598 5598 5597 5595 5593 5590 5586 5582 5577 5572 5567 5561 5555 5548 5540 5532 5524 5514 5504 5494 5482 5470 5457 5445 5432 5420 5410 5401 5393 5386 5380 5374 5366 5358 5349 5339 5329 5319 5311 5304 5296 5289
5594 5594 5592 5591 5588 5585 5581 5577 5572 5568 5562 5557 5550 5544 5536 5528 5519 5509 5499 5488 5477 5466 5454 5441 5428 5416 5406 5398 5391 5385 5380 5373 5366 5358 5349 5340 5330 5320 5311 5302 5294 5287 5280
5590 5588 5586 5583 5580 5576 5572 5568 5563 5558 5552 5546 5540 5532 5524 5515 5505 5494 5483 5470 5458 5446 5434 5423 5412 5402 5396 5390 5385 5380 5374 5367 5360 5351 5341 5332 5322 5312 5303 5295 5287 5280 5273
5584 5581 5579 5575 5572 5568 5564 5560 5554 5549 5543 5536 5528 5519 5510 5500 5489 5477 5465 5451 5438 5426 5415 5406 5398 5393 5388 5384 5380 5375 5369 5362 5354 5345 5335 5325 5315 5306 5297 5289 5281 5275 5269
5577 5575 5572 5568 5565 5561 5556 5551 5546 5540 5533 5524 5515 5506 5495 5483 5470 5458 5445 5432 5419 5407 5399 5393 5389 5386 5383 5380 5376 5371 5365 5357 5349 5339 5329 5319 5309 5300 5292 5285 5277 5271 5266
5571 5568 5565 5561 5557 5553 5548 5543 5536 5529 5521 5511 5501 5490 5477 5464 5449 5436 5424 5412 5402 5394 5388 5385 5383 5382 5379 5376 5372 5367 5361 5353 5345 5335 5325 5315 5306 5297 5289 5282 5276 5270 5265
5565 5562 5558 5555 5550 5546 5540 5534 5526 5518 5508 5498 5486 5474 5460 5445 5430 5416 5404 5394 5388 5384 5382 5381 5380 5379 5377 5373 5369 5364 5357 5350 5341 5332 5323 5313 5304 5296 5289 5282 5276 5270 5266
5559 5556 5552 5548 5543 5538 5531 5524 5515 5506 5495 5483 5469 5455 5441 5426 5412 5399 5390 5383 5380 5379 5379 5379 5378 5377 5374 5371 5366 5361 5354 5347 5339 5331 5322 5313 5305 5297 5290 5283 5277 5273 5268
5553 5550 5545 5541 5535 5529 5522 5514 5504 5493 5481 5467 5451 5436 5421 5408 5396 5387 5381 5378 5377 5378 5378 5378 5377 5375 5372 5369 5364 5359 5353 5346 5339 5331 5322 5314 5306 5299 5292 5286 5281 5275 5270
5547 5543 5539 5533 5527 5520 5512 5503 5492 5480 5466 5451 5435 5421 5407 5396 5387 5382 5379 5378 5378 5378 5378 5378 5376 5374 5371 5367 5363 5358 5352 5346 5339 5332 5324 5317 5309 5303 5296 5290 5284 5278 5274
5541 5537 5532 5526 5519 5511 5502 5492 5480 5466 5452 5437 5423 5410 5399 5391 5385 5382 5380 5380 5380 5380 5379 5378 5376 5373 5370 5366 5362 5357 5352 5346 5339 5333 5326 5318 5312 5305 5298 5292 5287 5282 5277
5535 5530 5524 5518 5510 5502 5492 5480 5468 5454 5440 5427 5415 5404 5397 5391 5388 5385 5384 5384 5383 5382 5380 5378 5376 5373 5369 5365 5361 5356 5351 5345 5339 5333 5326 5320 5313 5307 5301 5296 5291 5286 5281
5528 5523 5517 5510 5502 5492 5482 5470 5458 5445 5432 5421 5411 5404 5398 5394 5391 5390 5388 5386 5385 5383 5381 5378 5375 5372 5368 5364 5360 5355 5350 5345 5339 5334 5328 5322 5316 5310 5304 5299 5294 5289 5285
Wind_Speed
49 47 46 46 45 44 42 41 40 40 39 38 37 37 38 40 41 43 44 46 48 50 52 53 55 55 57 60 62 64 66 68 69 68 70 72 74 77 80 84 89 93 98
46 44 44 44 44 42 40 40 39 39 38 37 37 38 39 40 42 44 46 48 50 52 54 56 56 58 60 63 64 65 67 68 70 70 71 74 78 83 87 91 96 100 101
43 42 42 42 41 39 38 38 38 38 38 37 37 39 40 41 43 46 48 51 52 54 56 57 59 61 63 64 66 67 68 69 71 73 76 80 85 90 94 98 99 97 91
40 41 40 39 38 36 36 36 36 37 37 37 38 39 41 43 45 48 50 52 54 56 58 60 62 63 64 65 66 67 68 71 75 79 82 87 92 97 99 97 90 81 71
39 38 37 35 34 34 34 34 35 35 36 37 38 41 43 46 47 49 50 53 55 58 60 61 62 64 64 65 66 68 72 76 80 84 89 94 97 97 93 85 74 62 54
34 33 31 31 31 31 32 33 34 35 36 37 41 43 45 46 48 49 51 55 57 59 60 61 62 63 63 65 68 72 77 82 87 92 96 98 95 89 79 67 58 51 47
27 27 26 26 27 29 31 33 33 34 37 40 42 44 45 46 48 51 54 56 58 59 60 61 61 62 64 68 72 77 83 89 94 97 96 91 82 71 62 54 50 48 47
21 22 23 25 27 29 30 30 33 36 38 41 43 44 45 47 50 53 55 56 57 59 59 60 62 64 68 72 76 81 87 93 95 92 86 75 65 56 52 50 48 46 43
20 21 23 26 26 27 29 32 35 37 39 41 42 43 46 48 51 53 54 55 57 57 59 61 65 68 72 77 82 87 91 91 88 79 70 60 53 51 51 49 47 46 42
20 22 25 26 27 28 31 33 35 36 38 39 41 44 47 49 51 52 54 54 55 57 61 65 69 73 78 83 87 89 88 82 72 62 55 51 50 50 50 49 47 46 44
19 21 23 24 26 27 29 31 32 34 37 40 43 45 47 49 51 52 52 54 56 59 63 68 72 77 82 86 88 86 78 67 57 49 46 46 47 48 48 48 48 47 45
17 18 20 21 23 25 27 29 32 35 38 41 43 45 47 49 50 51 53 56 59 63 67 72 77 81 85 86 83 74 63 53 46 42 42 44 45 46 46 46 46 46 46
13 14 17 19 21 24 28 31 34 37 39 41 43 45 46 48 49 52 56 60 64 68 73 77 81 84 84 79 70 59 48 41 38 39 41 43 44 45 45 44 44 43 43
11 13 16 20 23 27 30 33 35 37 39 41 43 44 46 49 52 56 60 65 69 73 77 80 83 82 76 65 54 44 37 35 36 38 40 42 43 44 44 44 42 40 38
13 16 19 23 26 29 31 33 35 37 39 40 42 45 48 52 56 61 65 69 73 76 79 81 78 71 59 48 39 33 32 34 36 39 41 43 43 43 43 42 40 38 34
16 20 23 25 28 30 32 34 36 37 38 41 45 49 53 57 61 66 71 74 78 80 80 76 66 54 42 33 28 28 31 33 36 39 41 42 42 41 39 38 37 34 30
20 23 25 27 28 30 32 33 35 37 41 45 49 54 58 63 67 72 75 79 81 79 72 60 47 36 28 23 23 26 29 33 36 39 41 41 40 38 36 34 32 29 26
22 24 26 28 29 30 31 33 37 41 45 50 55 59 64 69 73 77 79 80 76 67 55 41 30 22 18 19 21 25 29 32 35 38 39 39 37 35 33 31 28 25 22
24 25 27 28 29 30 33 37 41 46 50 55 60 65 70 75 78 80 79 72 61 48 35 24 17 14 15 18 21 25 29 32 35 37 38 37 35 32 30 28 26 23 21
25 26 26 28 30 33 37 41 46 51 55 61 66 71 75 77 79 76 68 56 41 27 17 12 9 11 14 18 21 25 29 32 34 36 36 35 34 31 29 27 25 23 21
25 25 27 29 32 36 41 45 50 55 60 66 71 75 77 76 72 62 48 34 21 12 7 6 7 11 15 19 22 26 29 32 34 35 35 34 33 31 30 28 25 23 21
25 26 29 32 35 40 45 49 54 59 65 70 74 75 73 66 55 41 27 16 9 5 4 6 9 12 16 20 22 25 28 31 32 34 33 33 32 31 29 27 24 23 21
26 28 31 34 39 44 48 53 58 64 68 71 71 67 59 49 36 23 13 7 5 5 6 8 11 14 17 20 22 24 26 28 31 32 31 31 30 28 27 26 25 24 22
27 30 33 38 42 46 51 56 61 65 67 66 62 53 43 31 20 11 8 6 6 6 7 10 12 15 18 20 22 24 26 27 28 30 30 30 29 28 28 27 26 24 23
29 32 36 40 44 49 54 58 62 63 62 58 50 39 28 19 12 9 8 7 7 8 10 12 14 16 19 21 22 24 25 26 28 29 30 30 29 28 27 26 25 24 23
30 34 38 42 46 51 55 58 60 59 55 48 38 28 20 13 9 8 7 7 9 10 12 14 16 17 19 21 22 24 25 26 26 28 28 29 28 27 26 25 24 24 23
Wind_Direction
238 239 240 242 244 247 251 254 258 263 268 274 280 284 287 289 291 292 294 296 296 296 296 297 298 299 300 301 301 302 302 303 303 304 304 304 303 302 302 302 301 301 300
234 235 237 240 243 247 250 255 259 264 270 276 281 284 287 289 292 293 294 296 296 296 297 298 300 301 302 302 303 303 304 305 305 305 305 304 304 304 303 303 303 302 301
229 231 234 238 242 246 251 256 261 266 272 277 282 285 287 290 292 294 294 295 295 296 298 300 301 302 303 304 305 306 306 307 307 307 307 307 306 306 305 305 304 303 301
223 227 232 237 242 247 252 258 263 268 274 279 284 287 289 290 291 292 293 294 296 298 300 301 303 304 305 306 307 307 308 308 308 308 308 308 308 307 307 306 305 303 301
219 224 230 236 242 248 255 260 264 270 276 281 285 287 288 288 290 292 293 295 297 299 301 302 304 305 306 307 308 308 309 309 309 309 309 309 309 308 307 307 305 303 300
216 223 230 237 244 251 256 260 267 272 277 282 285 286 287 289 291 293 294 296 298 300 302 304 305 306 307 308 309 310 310 310 309 310 310 310 310 309 308 307 305 303 299
214 223 230 238 245 251 256 263 270 275 279 282 284 286 289 291 292 293 295 297 300 302 303 304 305 307 308 309 310 310 311 311 311 311 311 311 311 310 309 308 306 305 303
212 221 228 237 246 251 259 267 273 276 278 282 286 288 290 291 293 295 297 300 301 303 304 305 306 308 309 309 310 311 311 312 312 312 312 311 311 310 309 309 308 307 307
212 223 231 239 246 256 264 269 274 278 282 285 288 290 291 293 295 297 299 301 303 304 305 306 308 309 309 310 311 312 313 313 313 312 312 312 312 311 311 311 310 309 309
215 225 235 244 252 261 267 274 279 283 286 289 290 292 294 295 297 299 301 303 304 305 307 308 309 310 311 311 313 313 314 314 313 312 312 313 313 313 313 313 312 311 310
225 235 244 255 265 272 278 282 286 288 290 291 293 294 296 298 300 302 303 304 306 307 308 309 310 311 312 313 314 314 315 314 314 313 313 314 315 314 314 314 314 313 312
242 254 265 273 278 282 285 288 290 291 292 294 296 297 299 301 302 304 305 306 307 308 309 309 310 312 313 314 315 315 315 315 315 316 316 317 317 316 316 315 315 315 314
263 271 277 282 285 288 290 291 292 294 295 297 299 300 302 303 305 306 307 308 309 309 310 310 312 313 314 315 316 316 316 317 318 319 320 320 319 318 317 317 317 317 317
278 282 285 288 290 291 293 294 296 297 299 301 302 304 305 306 307 308 309 309 309 310 311 312 313 314 315 315 315 316 317 319 322 323 323 323 322 321 320 319 319 318 318
285 287 290 292 294 296 297 299 300 301 303 304 306 307 308 309 309 310 309 309 309 310 311 312 313 314 314 315 316 318 321 324 326 327 327 326 325 323 322 322 322 322 321
293 295 296 298 299 300 301 303 304 306 307 308 309 310 310 310 310 310 310 310 310 311 312 313 313 313 314 315 317 321 325 329 330 331 330 329 328 327 326 326 326 326 325
299 300 301 302 303 305 306 307 309 310 311 312 312 311 311 311 311 310 310 311 311 312 313 313 313 312 314 316 321 327 331 334 335 334 334 333 333 333 332 332 331 331 331
302 303 304 306 308 309 310 311 312 313 313 314 313 313 312 312 311 311 312 312 313 313 313 312 312 313 316 323 329 335 338 339 340 340 340 340 340 340 340 340 340 341 343
305 306 308 310 311 313 314 315 316 316 316 316 315 314 314 313 313 313 313 314 314 314 313 312 313 318 326 333 338 341 344 346 346 346 347 348 349 349 350 351 352 353 355
308 310 312 313 315 316 317 318 318 318 318 317 316 316 315 314 314 315 316 316 316 315 314 316 324 333 338 342 345 348 350 351 352 352 353 354 356 357 359 0 3 5 4
311 313 315 316 318 319 320 320 320 320 319 318 318 317 316 317 317 318 319 319 320 322 328 341 348 348 349 350 351 352 354 355 357 357 357 359 1 4 6 8 10 10 10
313 315 318 319 321 322 322 322 322 322 321 320 320 319 320 321 322 323 325 330 339 359 18 12 1 357 355 354 354 355 356 358 359 1 1 3 5 8 9 10 11 13 15
316 318 320 322 323 324 324 324 324 324 323 323 323 323 325 327 330 334 344 5 32 42 32 13 1 356 354 354 354 355 357 359 1 2 4 6 8 10 12 14 16 18 19
318 320 322 324 325 326 326 326 326 326 326 326 328 329 332 337 344 0 27 50 52 40 20 6 357 353 352 352 353 354 356 359 1 3 5 7 10 12 15 17 18 20 20
319 322 324 326 327 328 328 329 329 329 329 331 333 337 343 353 10 34 52 53 39 19 5 357 352 349 349 350 352 353 355 358 0 3 5 7 10 12 14 17 18 19 20
319 323 325 327 328 329 330 331 331 331 332 335 339 345 354 8 25 39 41 29 12 0 354 349 346 344 344 346 349 352 354 357 359 2 5 7 9 11 13 15 17 18 18